TimeCDT,TemperatureF,Dew PointF,Humidity,Sea Level PressureIn,VisibilityMPH,Wind Direction,Wind SpeedMPH,Gust SpeedMPH,PrecipitationIn,Events,Conditions,WindDirDegrees,DateUTC
12:53 AM,44.1,42.1,93,30.02,10.0,Calm,Calm,-,N/A,,Clear,0,2012-10-31 05:53:00
1:53 AM,43.0,39.9,89,30.02,9.0,Calm,Calm,-,N/A,,Clear,0,2012-10-31 06:53:00
2:53 AM,43.0,39.9,89,30.02,6.0,Calm,Calm,-,N/A,,Clear,0,2012-10-31 07:53:00
3:53 AM,42.1,39.9,92,30.01,9.0,Calm,Calm,-,N/A,,Clear,0,2012-10-31 08:53:00
4:53 AM,42.1,39.9,92,30.00,8.0,Calm,Calm,-,N/A,,Clear,0,2012-10-31 09:53:00
5:53 AM,42.1,39.9,92,30.01,8.0,Calm,Calm,-,N/A,,Clear,0,2012-10-31 10:53:00
6:53 AM,42.1,39.9,92,30.02,5.0,Calm,Calm,-,N/A,,Clear,0,2012-10-31 11:53:00
7:53 AM,43.0,41.0,93,30.03,7.0,Calm,Calm,-,N/A,,Clear,0,2012-10-31 12:53:00
8:53 AM,51.1,46.9,86,30.04,9.0,Calm,Calm,-,N/A,,Clear,0,2012-10-31 13:53:00
9:53 AM,64.0,55.0,73,30.04,10.0,West,4.6,-,N/A,,Clear,260,2012-10-31 14:53:00
10:53 AM,72.0,57.9,61,30.03,10.0,West,11.5,-,N/A,,Clear,270,2012-10-31 15:53:00
11:53 AM,77.0,57.0,50,30.02,10.0,West,13.8,-,N/A,,Clear,260,2012-10-31 16:53:00
12:53 PM,79.0,57.0,47,29.99,10.0,WSW,11.5,-,N/A,,Clear,250,2012-10-31 17:53:00
1:53 PM,80.1,55.0,42,29.96,10.0,SW,10.4,-,N/A,,Clear,220,2012-10-31 18:53:00
2:53 PM,82.0,55.0,39,29.94,10.0,SW,13.8,-,N/A,,Partly Cloudy,230,2012-10-31 19:53:00
3:53 PM,81.0,54.0,39,29.93,10.0,West,12.7,20.7,N/A,,Clear,260,2012-10-31 20:53:00
4:53 PM,79.0,55.0,44,29.94,10.0,West,5.8,-,N/A,,Scattered Clouds,260,2012-10-31 21:53:00
5:53 PM,75.0,57.9,55,29.93,10.0,Calm,Calm,-,N/A,,Scattered Clouds,0,2012-10-31 22:53:00
6:53 PM,66.9,59.0,76,29.94,10.0,Calm,Calm,-,N/A,,Clear,0,2012-10-31 23:53:00
7:53 PM,63.0,59.0,87,29.96,10.0,Calm,Calm,-,N/A,,Clear,0,2012-11-01 00:53:00
8:53 PM,60.1,57.9,93,29.98,10.0,Calm,Calm,-,N/A,,Clear,0,2012-11-01 01:53:00
9:53 PM,57.0,55.0,93,30.00,1.8,Calm,Calm,-,N/A,,Clear,0,2012-11-01 02:53:00
10:07 PM,55.4,53.6,94,30.00,0.8,Calm,Calm,-,N/A,,Clear,0,2012-11-01 03:07:00
10:12 PM,55.4,55.4,100,30.00,2.0,Calm,Calm,-,N/A,,Clear,0,2012-11-01 03:12:00
10:22 PM,57.2,55.4,94,30.00,6.0,Calm,Calm,-,N/A,,Clear,0,2012-11-01 03:22:00
10:42 PM,57.2,55.4,94,30.00,2.5,Calm,Calm,-,N/A,,Clear,0,2012-11-01 03:42:00
10:49 PM,55.4,53.6,94,30.00,3.0,Calm,Calm,-,N/A,,Clear,0,2012-11-01 03:49:00
10:53 PM,57.0,54.0,89,30.00,2.5,Calm,Calm,-,N/A,,Clear,0,2012-11-01 03:53:00
11:00 PM,55.4,53.6,94,30.01,1.2,Calm,Calm,-,N/A,,Clear,0,2012-11-01 04:00:00
11:05 PM,55.4,53.6,94,30.01,3.0,Calm,Calm,-,N/A,,Clear,0,2012-11-01 04:05:00
11:18 PM,55.4,53.6,94,30.01,0.8,Calm,Calm,-,N/A,,Clear,0,2012-11-01 04:18:00
11:35 PM,55.4,53.6,94,30.01,2.0,Calm,Calm,-,N/A,,Clear,0,2012-11-01 04:35:00
11:53 PM,55.0,53.1,93,30.01,1.5,Calm,Calm,-,N/A,,Clear,0,2012-11-01 04:53:00